Location: Bow
(51.5261°N, 0.0167°W)
Time: 21:59:08
(UTC+00:00)

Meteor 1-22 Rocket - Pass Details

Date: 18 September 2020
Orbit: 786 x 941 km, 81.2° (Epoch: 30 October)

Event Time Altitude Azimuth Distance (km) Brightness Sun altitude
Exits shadow 20:43:06 47° 160° (SSE) 1,179 4.5 -23.5°
Maximum altitude 20:44:43 68° 98° (E) 979 4.2 -23.7°
Drops below altitude 10° 20:50:44 10° 17° (NNE) 2,646 7.0 -24.5°
Sets 20:53:16 0° 15° (NNE) 3,605 7.8 -24.8°
